Location: Bergnershof
(48.9468°N, 10.9431°E)
Time: 03:40:23
(UTC+00:00)

USA 307 - Pass Details

Date: 03 March 2021
Orbit: 567 x 577 km, 54.0° (Epoch: 16 April)

Event Time Altitude Azimuth Distance (km) Brightness Sun altitude
Rises 18:16:38 0° 276° (W) 2,785 8.5 -12.9°
Reaches altitude 10° 18:18:59 10° 283° (WNW) 1,885 7.0 -13.3°
Maximum altitude 18:23:05 42° 355° (N) 824 3.8 -13.9°
Enters shadow 18:25:53 18° 60° (ENE) 1,428 4.5 -14.4°
